Regional Weather Roundup
Issued by NWS

Home | Current Version | Previous Version | Text Only | Print | Product List | Glossary On
Versions: 1 2 3 4 5 6 7 8 9 10 11 12 13 14 15 16 17 18 19 20 21 22 23 24 25 26 27 28 29 30 31 32 33 34 35 36 37 38 39 40 41 42 43 44 45 46 47 48 49 50
000
ASUS43 KMKX 210421
RWRWI

WISCONSIN REGIONAL WEATHER ROUNDUP
NATIONAL WEATHER SERVICE MILWAUKEE/SULLIVAN WI
1100 PM CDT THU JUL 20 2017

NOTE: "FAIR" INDICATES FEW OR NO CLOUDS BELOW 12,000 FEET WITH NO
SIGNIFICANT WEATHER AND/OR OBSTRUCTIONS TO VISIBILITY.

WIZ001-002-006>008-014>016-023>028-210500-
NORTHWEST WISCONSIN

CITY           SKY/WX    TMP DP  RH WIND       PRES   REMARKS
SUPERIOR ARPT  NOT AVBL
ASHLAND        CLEAR     66  62  87 SW6       29.97R
HAYWARD        PTCLDY    65  62  90 CALM      29.99S
SIREN          CLOUDY    67  65  93 CALM      29.99R
CUMBERLAND     CLEAR     64  63  94 CALM      30.00S
RICE LAKE      CLEAR     67  66  94 CALM      30.01S
CHETEK           N/A     67  67  99 CALM      29.99S
LADYSMITH      CLEAR     67  64  90 CALM      30.02S
EAU CLAIRE     CLEAR     68  67  96 CALM      29.97S
MENOMONIE      CLEAR     70  68  96 CALM      29.98F
NEW RICHMOND   CLEAR     69  68  96 E3        29.99R
OSCEOLA        CLEAR     68  68 100 CALM      30.00S
$$

WIZ003>005-009-010-017-018-210500-
NORTH CENTRAL WISCONSIN

CITY           SKY/WX    TMP DP  RH WIND       PRES   REMARKS
MANITOWISH WTR CLEAR     59  59 100 CALM      30.01S
ARBOR VITAE    CLEAR     64  62  91 CALM      30.01S
WOODRUFF       CLEAR     64  62  91 CALM      30.01S
RHINELANDER    CLEAR     62  62 100 CALM      30.02S
EAGLE RIVER    CLEAR     60  60  99 CALM      30.01S
LAND O LAKES   CLEAR     58  58  99 CALM      30.02S
PHILLIPS       CLOUDY    62  62 100 CALM      30.00S
TOMAHAWK         N/A     60  59  94 CALM      30.02S
MEDFORD        CLEAR     66  64  93 W3        30.01S
MERRILL        CLEAR     64  64 100 CALM      30.01R
$$

WIZ029-030-035-036-043>047-210500-
CENTRAL WISCONSIN

CITY           SKY/WX    TMP DP  RH WIND       PRES   REMARKS
WAUSAU         CLEAR     72  66  81 NW5       29.98S
MOSINEE        CLEAR     68  66  94 NW7       30.00F
MARSHFIELD     CLEAR     71  64  78 CALM      29.99S
STEVENS POINT  CLEAR     65  65 100 CALM      30.00R
WAUPACA        CLEAR     71  69  93 CALM      29.98R
WAUTOMA        CLEAR     68  66  93 N5        29.99R
WISC RAPIDS    CLEAR     66  65  96 CALM      30.00R
CAMP DOUGLAS   CLEAR     66  66 100 CALM      29.98F FOG
$$

WIZ011>013-019>022-031-037>040-048>050-210500-
NORTHEAST WISCONSIN

CITY           SKY/WX    TMP DP  RH WIND       PRES   REMARKS
ANTIGO         CLEAR     64  61  88 CALM      30.01S
SHAWANO        CLEAR     68  64  87 CALM      29.96S
OCONTO         CLEAR     67  65  96 CALM      29.94R
STURGEON BAY     N/A     71  67  87 W3        29.95R
GREEN BAY      CLEAR     69  69 100 W3        29.95S
MANITOWOC      CLEAR     69  66  90 CALM      29.97R
APPLETON       PTCLDY    72  63  73 W8        29.96R
CLINTONVILLE   CLEAR     68  64  88 CALM      29.97R
OSHKOSH        CLEAR     72  68  87 W3        29.97R
$$

WIZ032>034-041-042-053>061-210500-
SOUTHWEST WISCONSIN

CITY           SKY/WX    TMP DP  RH WIND       PRES   REMARKS
LA CROSSE      CLEAR     73  70  90 SE3       29.97R
SPARTA         CLEAR     65  65 100 CALM      29.98F FOG
VIROQUA        CLEAR     70  70 100 S3        30.01S
BOSCOBEL       MOCLDY    70  69  97 CALM      29.98S FOG
PRAIRIE DU CHI CLOUDY    71  69  93 CALM      29.96F
PLATTEVILLE    CLOUDY    74  73  96 NE7       29.99F
$$

WIZ056-057-062-063-064-067-068-210500-
SOUTH CENTRAL WISCONSIN

CITY           SKY/WX    TMP DP  RH WIND       PRES   REMARKS
REEDSBURG      CLEAR     69  69 100 CALM      29.99S
BARABOO/DELLS  CLEAR     69  67  94 CALM      29.99S
LONE ROCK      CLEAR     71  69  93 CALM      29.98S
MINERAL POINT  CLEAR     75  72  88 NE6       30.00F
MADISON        CLEAR     71  68  90 CALM      29.99R
MIDDLETON      CLEAR     69  69 100 CALM      30.00S
WATERTOWN      CLEAR     71  71 100 CALM      29.98S
MONROE         CLOUDY    77  70  78 N3        29.99F
JANESVILLE     CLOUDY    73  73 100 CALM      29.97S
$$

WIZ051-052-058>065-066-070>072-210500-
SOUTHEAST WISCONSIN

CITY           SKY/WX    TMP DP  RH WIND       PRES   REMARKS
MILWAUKEE      PTCLDY    76  70  82 W5        29.98R
WAUKESHA       CLEAR     72  70  94 CALM      29.99S
MILWAUKEE/TIMM CLEAR     73  66  78 CALM      29.99R
RACINE         CLEAR     72  69  90 SW3       29.99R
KENOSHA        CLEAR     71  68  90 SW3       29.98R
FOND DU LAC    CLEAR     70  67  90 SW5       29.98R
SHEBOYGAN      CLEAR     69  69 100 SW3       29.97R
WEST BEND      CLEAR     70  70 100 CALM      29.98S
JUNEAU         CLEAR     70  68  93 CALM      30.00R
$$

LSZ147-162-210500-
LAKE SUPERIOR

STATION/POSITION TIME  TEMP    WIND        PRES    WAVE
                       AIR SEA DIR/SP/G            HT/PER
                 (UTC) (F)     (DEG/KT/KT) (MB)    (FT/S)
W MID LAKE BUOY  0350   56 48  290/  6/  8 1014.1R   1
DEVILS ISLAND    0400   70     250/  8/  9 1014.0S
SAXON HARBOR     0330   69     200/  6/  8 1013.9S
$$

LMZ867-665-643>646-210500-
LAKE MICHIGAN

STATION/POSITION TIME  TEMP    WIND        PRES    WAVE
                       AIR SEA DIR/SP/G            HT/PER
                 (UTC) (F)     (DEG/KT/KT) (MB)    (FT/S)
CHAMBERS ISLAND  0340   74      20/ 10/ 13 1013.2S
S GREEN BAY BUOY 0400   75 74  270/  6/  6 1013.6
N MID LAKE BUOY  0350   68 65  160/  4/  8 1014.4F   1/ 5
NORTHPORT PIER   0340   72     350/  5/  7 1013.5S
KEWAUNEE LAKESHO 0354   72     260/  2/  4 1013.4S
SHEBOYGAN LAKESH 0400   71     190/  6/  6 1014.1R
PORT WASHINGTON  0330   72     270/  2/  2 1015.6S
ATWATER BUOY     0309   71 69  160/  4/  6 1014.7F
MILWAUKEE LAKESH 0400   74      CALM  /  1   N/A
S MID LAKE BUOY  0350   71 71  310/  4/  4 1014.5R   1
KENOSHA   LAKESH 0400   76     220/  5/  6 1014.9
$$

TC  - TEMPERATURE IN CELSIUS
VSB - VISIBILITY IN STATUTE MILES
WCI - WIND CHILL INDEX
HX  - HEAT INDEX





USA.gov is the U.S. government's official web portal to all federal, state and local government web resources and services.